Startseite
Über Mich
AHP4
Galerie
Sehschlangen
Tourenbuch
Bookmarks
Elektronik
Bewertung
Geschichten
[Tagesmessung] [Jahreswerte] [Information]

Messwerte vom 16.05.2022

Die letzten Messwerte von 23:58:47 Uhr:
KategorieMesswert
Temperatur [°C]16
Luftdruck [mBar]1002
Sonneneinstrahlung0
Wind [km/h]0 aus West
Niederschlag [l/m²]0
rel.Luftfeucht.95.6%
CO2 [ppm]973

Diagramme
Messwerte vom 16.05.2022
Tagesaggregation
KategorieMinimumMaximumSchnittSumme
Temperatur [°C]73017.4542
Luftdruck [mBar]99710041001.1354
Sonneneinstrahlung240122.2708
Wind [km/h]17
rF [%]3196.567.28
Niederschlag [l/m²]0.2575
CO2 [ppm]401975575.2
Einordnung alsVegetationstag
Sommertag
Heißer Tag

Messungen an benachbarten Tagen: Zur Jahresaggregation 2022
Tabelle aller Messwerte
UhrzeitTemperatur [°C]Luftdruck [mBar]SonneWind [km/h]RichtungRegen [l/m²]rF [%]CO2 [ppm]
00:01:49 11 1002 0 0 NO 0 70.5 548
00:04:47 10 1003 0 0 NO 0 70.7 544
00:07:48 10 1003 0 0 NO 0 70.9 546
00:10:47 10 1003 0 0 NO 0 71.2 550
00:13:47 10 1003 0 0 NO 0 71 554
00:16:45 10 1003 0 0 NO 0 71.2 553
00:19:46 10 1003 0 0 NO 0 71 556
00:22:47 10 1002 0 0 NO 0 71.2 557
00:25:47 10 1003 0 0 S 0 72.1 559
00:28:47 10 1003 0 0 S 0 71.5 562
00:31:49 10 1002 0 1 NO 0 71.5 568
00:34:50 10 1002 0 0 NO 0 72.2 570
00:37:46 10 1002 0 0 N 0 72.2 571
00:40:45 10 1003 0 0 N 0 72.1 577
00:43:46 10 1003 0 0 N 0 71.8 586
00:46:44 10 1003 0 0 S 0 71.3 578
00:49:49 10 1003 0 0 NO 0 71.6 585
00:52:47 10 1003 0 0 NO 0 72.8 580
00:55:48 10 1003 0 0 NO 0 72.1 574
00:58:45 10 1003 0 0 NO 0 71.9 584
01:01:47 10 1003 0 0 NO 0 72.4 594
01:04:46 10 1003 0 0 NO 0 72.6 594
01:07:47 10 1004 0 0 NO 0 73.5 600
01:10:47 10 1003 0 0 NO 0 74.3 604
01:13:47 10 1003 0 0 NO 0 74.1 607
01:16:47 10 1003 0 0 NO 0 74.1 600
01:19:45 10 1004 0 0 NO 0 74.6 600
01:22:48 10 1003 0 0 NO 0 74.8 604
01:25:46 10 1004 0 0 NO 0 75.1 617
01:28:47 10 1003 0 0 S 0 74.6 609
01:31:45 10 1003 0 0 S 0 74.1 607
01:34:47 9 1003 0 0 S 0 74.5 615
01:37:45 9 1003 0 0 S 0 74.9 618
01:40:46 9 1003 0 0 S 0 75.3 621
01:43:46 9 1003 0 0 S 0 75.8 627
01:46:48 9 1003 0 0 SO 0 75.6 624
01:49:50 9 1003 0 0 SO 0 75.8 634
01:52:48 9 1004 0 0 SO 0 76.4 632
01:55:46 9 1003 0 0 SO 0 76.5 633
01:58:45 9 1004 0 0 N 0 77.8 635
02:01:48 9 1003 0 0 N 0 79.9 639
02:04:47 9 1003 0 0 N 0 80.2 636
02:07:47 9 1003 0 0 N 0 80.4 640
02:10:48 9 1003 0 0 NO 0 79.2 636
02:13:47 9 1003 0 0 NO 0 78.7 641
02:16:46 9 1003 0 5 NO 0 79.3 644
02:19:47 9 1003 0 3 NO 0 80 645
02:22:47 9 1003 0 1 N 0 79.8 645
02:25:45 9 1003 0 2 N 0 79.6 646
02:28:45 9 1003 0 0 O 0 79.4 650
02:31:46 10 1003 0 0 N 0 79.6 644
02:34:47 9 1003 0 0 N 0 78.8 644
02:37:46 9 1003 0 1 NO 0 78.7 639
02:40:48 9 1003 0 0 SO 0 78.5 636
02:43:47 9 1003 0 0 SO 0 78 638
02:46:46 8 1004 0 0 SO 0 78.3 647
02:49:49 8 1003 0 0 SO 0 78.6 639
02:52:47 8 1003 0 0 SO 0 78.8 648
02:55:48 8 1003 0 0 SO 0 79.8 640
02:58:47 8 1003 0 0 SO 0 80.2 641
03:01:48 8 1003 0 0 SO 0 80.6 644
03:04:47 8 1002 0 0 SO 0 80.7 646
03:07:49 8 1003 0 0 SO 0 80.7 647
03:10:48 8 1003 0 0 SO 0 80.9 648
03:13:48 8 1003 0 0 NW 0 82.9 648
03:16:48 8 1003 0 0 NW 0 83.5 649
03:19:48 8 1003 0 0 S 0 83.6 642
03:22:46 8 1003 0 0 N 0 83.9 633
03:25:47 8 1003 0 0 N 0 83.9 633
03:28:48 8 1003 0 0 N 0 83.8 642
03:31:46 8 1003 0 0 N 0 83.9 648
03:34:46 8 1002 0 0 NO 0 85.1 649
03:37:47 8 1002 0 1 NO 0 85.4 649
03:40:46 8 1003 0 0 NO 0 85 650
03:43:49 8 1002 0 1 NO 0 85 652
03:46:45 8 1002 0 0 N 0 85.9 653
03:49:46 8 1002 0 0 SO 0 86.1 647
03:52:53 8 1002 0 0 SO 0 85.4 647
03:55:47 8 1002 0 0 O 0 85.1 653
03:58:46 8 1002 0 0 O 0 85.6 658
04:01:48 8 1002 0 0 NO 0 85.8 651
04:04:45 8 1002 0 0 O 0 85.4 653
04:07:46 8 1002 0 0 O 0 85.1 650
04:10:46 7 1003 0 0 O 0 85.1 654
04:13:48 7 1002 0 0 O 0 85 648
04:16:46 7 1002 0 0 O 0 85 639
04:19:48 7 1002 0 0 O 0 85.3 640
04:22:44 7 1002 0 0 O 0 85.7 644
04:25:46 7 1002 0 0 O 0 85.8 647
04:28:47 7 1003 0 0 O 0 85.9 649
04:31:45 7 1002 0 1 O 0 88.4 646
04:34:49 7 1002 0 0 SO 0 88.8 642
04:37:45 7 1002 0 1 O 0 88 641
04:40:46 8 1002 0 0 0 88.4 633
04:43:48 8 1002 0 0 O 0 88.4 648
04:46:48 8 1002 0 0 NW 0 87.4 642
04:49:46 7 1002 0 0 O 0 86.9 642
04:52:45 7 1002 4 1 N 0 87.5 633
04:55:48 8 1002 6 2 NW 0 88.3 634
04:58:47 8 1002 9 0 NO 0 89.3 642
05:01:48 8 1002 12 1 N 0 88.1 650
05:04:51 8 1002 18 3 NO 0 88.1 642
05:07:51 8 1002 24 3 NW 0 88.1 634
05:10:49 8 1002 32 0 NO 0 87.7 632
05:13:47 8 1002 41 1 O 0 87.4 629
05:16:47 8 1002 51 1 N 0 87.4 636
05:19:45 8 1002 61 1 NO 0 87.7 635
05:22:48 8 1002 71 0 O 0 88 633
05:25:48 8 1002 81 1 O 0 87.9 633
05:28:48 8 1002 90 2 0 87.6 627
05:31:51 8 1002 99 1 NO 0 87.8 625
05:34:48 8 1002 107 2 NO 0 88 626
05:37:48 8 1002 114 1 O 0 88 633
05:40:49 8 1002 120 2 O 0 88.1 631
05:43:51 8 1002 126 2 N 0 88 635
05:46:48 8 1002 131 0 SO 0 87.8 632
05:49:48 8 1002 135 0 O 0 87.5 633
05:52:50 8 1002 138 0 N 0 87 632
05:55:49 8 1002 142 0 NO 0 86.7 630
05:58:49 8 1002 147 1 NO 0 87.8 633
06:01:49 8 1002 152 2 N 0 88.2 633
06:04:48 8 1002 154 2 N 0 88.2 621
06:07:49 9 1002 157 2 NW 0 87.9 623
06:10:47 9 1002 160 1 N 0 87.5 618
06:13:47 9 1002 162 1 NO 0 87.3 618
06:16:50 9 1002 164 0 NO 0 87.3 615
06:19:49 9 1002 166 0 SO 0 87.1 614
06:22:47 9 1002 168 0 O 0 86.9 618
06:25:49 9 1002 169 0 N 0 86.7 617
06:28:51 9 1002 170 0 NO 0 86.7 612
06:31:47 9 1002 172 1 SO 0 86.8 609
06:34:48 9 1002 173 0 N 0 86.3 612
06:37:46 9 1002 175 1 N 0 86 615
06:40:59 9 1002 177 1 N 0 85.8 615
06:43:49 10 1002 179 1 NO 0 85.7 612
06:46:46 10 1002 180 1 O 0 85 615
06:49:52 10 1002 181 0 NW 0 84.3 609
06:52:48 11 1002 181 4 O 0 83.8 615
06:55:52 11 1002 182 0 NO 0 82.8 621
06:58:49 11 1002 182 6 N 0 80.5 615
07:01:46 12 1002 183 3 O 0 80 607
07:04:49 13 1002 183 1 O 0 77.2 600
07:07:48 13 1002 183 0 NO 0 75.6 603
07:10:48 14 1002 183 2 O 0 73.9 603
07:13:49 15 1002 183 0 O 0 70.5 600
07:16:48 16 1002 183 1 SO 0 70.2 603
07:19:47 17 1002 184 3 N 0 62.4 603
07:22:49 17 1002 185 0 O 0 61.6 606
07:25:50 17 1002 186 2 NO 0 59.8 599
07:28:50 18 1002 187 3 S 0 59.3 594
07:31:46 18 1002 188 1 O 0 59.7 594
07:34:49 18 1002 190 1 NO 0 58.1 606
07:37:48 19 1002 192 4 SW 0 56.9 606
07:40:47 19 1002 193 6 N 0 55.4 615
07:43:47 18 1002 194 5 0 54.1 636
07:46:46 18 1002 193 2 S 0 55.3 644
07:49:48 18 1002 192 3 N 0 54.9 592
07:52:31 17 1002 190 4 N 0 47.1 568
07:55:31 17 1002 189 4 NO 0 40 574
07:58:48 16 1002 189 1 O 0 61.8 584
08:01:48 15 1002 189 2 O 0 63.4 598
08:04:49 15 1002 188 0 NO 0 64.2 607
08:07:49 16 1002 187 10 O 0 65 604
08:10:48 16 1002 186 2 O 0 64.9 601
08:13:47 16 1002 185 2 O 0 64.1 597
08:16:47 16 1002 187 0 O 0 64.3 600
08:19:49 16 1002 188 1 SO 0 63.1 589
08:22:50 16 1002 187 0 S 0 63.8 580
08:25:52 16 1002 187 2 NW 0 63.2 584
08:28:49 16 1002 188 0 O 0 62.8 586
08:31:50 16 1002 188 1 NO 0 63.1 580
08:34:47 16 1002 188 5 O 0 62.6 578
08:37:49 16 1002 188 3 NW 0 62.6 573
08:40:48 16 1002 188 1 S 0 61.6 562
08:43:48 16 1002 188 2 SO 0 60.5 559
08:46:48 16 1002 188 4 SO 0 60.7 559
08:49:47 16 1002 189 1 S 0 60.4 563
08:52:46 17 1002 189 4 S 0 61.5 563
08:55:48 17 1002 189 3 SO 0 61.4 550
08:58:45 17 1002 190 4 0 60.7 542
09:01:48 17 1002 190 2 O 0 60.8 542
09:04:48 17 1002 190 0 SO 0 59.4 545
09:07:48 17 1002 190 1 N 0 60 536
09:10:49 17 1002 190 2 SO 0 59.5 536
09:13:45 17 1002 191 1 O 0 58.4 530
09:16:47 17 1002 193 7 S 0 58.1 525
09:19:50 18 1002 194 2 NO 0 58.6 518
09:22:48 18 1002 195 3 SO 0 59.1 521
09:25:48 18 1002 198 2 N 0 59.3 515
09:28:49 18 1002 201 7 NO 0 58.2 518
09:31:49 18 1002 204 2 NO 0 57.7 513
09:34:48 18 1002 206 5 O 0 56.7 510
09:37:48 18 1002 209 2 SW 0 56.1 496
09:40:49 18 1002 210 2 O 0 56 495
09:43:48 18 1002 209 1 S 0 57.1 486
09:46:49 19 1002 211 10 O 0 57.1 488
09:49:47 19 1002 211 6 SO 0 57.3 486
09:52:49 19 1002 208 2 O 0 53.7 486
09:55:49 20 1002 207 3 O 0 53.2 474
09:58:49 20 1002 203 3 NW 0 52.8 471
10:01:49 20 1002 206 1 NO 0 52.6 466
10:04:32 19 1002 208 3 NO 0 45.6 471
10:07:48 20 1002 208 4 S 0 51.5 466
10:10:47 20 1002 209 1 NW 0 52.1 471
10:13:48 20 1002 209 3 O 0 50.9 465
10:16:50 20 1001 208 2 NW 0 50.1 457
10:19:47 20 1001 206 5 S 0 50.3 456
10:22:49 20 1002 206 5 SW 0 50.4 450
10:25:47 20 1002 201 4 S 0 49.2 451
10:28:50 20 1001 204 3 N 0 48.8 454
10:31:49 20 1001 202 5 NW 0 48.4 440
10:34:48 21 1002 201 4 NO 0 47.4 439
10:37:48 21 1002 195 13 SW 0 47.5 433
10:40:49 21 1002 200 4 S 0 48.3 428
10:43:48 21 1002 201 8 SW 0 47.7 424
10:46:46 21 1001 201 3 O 0 46.2 410
10:49:48 21 1002 201 6 NO 0 47 415
10:52:49 21 1001 201 12 O 0 46.8 415
10:55:49 21 1002 201 2 SO 0 46.7 424
10:58:49 21 1001 201 3 N 0 45.6 421
11:01:49 21 1002 201 6 SO 0 45.1 419
11:04:49 22 1002 202 3 N 0 45.1 413
11:07:47 22 1001 202 3 O 0 44.7 413
11:10:48 22 1002 202 6 NO 0 44 409
11:13:47 22 1002 202 5 SO 0 43.3 404
11:16:48 22 1001 203 5 O 0 43.8 405
11:19:49 22 1001 203 7 S 0 43.9 407
11:22:48 22 1002 204 4 S 0 43 404
11:25:46 22 1001 204 6 O 0 43.3 406
11:28:48 23 1002 204 3 SO 0 42.8 407
11:31:51 23 1002 205 4 NO 0 42.2 407
11:34:50 23 1002 205 7 SO 0 42.9 404
11:37:49 23 1001 206 5 S 0 43 407
11:40:47 23 1001 206 2 S 0 42.4 407
11:43:48 23 1002 207 17 O 0 43.9 404
11:46:48 23 1002 208 5 O 0 41.9 407
11:49:47 23 1001 209 7 S 0 41.1 404
11:52:49 23 1001 209 16 SO 0 41.9 404
11:55:50 24 1002 210 3 SW 0 42.4 404
11:58:50 24 1002 210 4 NW 0 39.8 407
12:01:51 24 1002 210 4 SO 0 41.9 407
12:04:52 24 1001 211 4 SO 0 40.5 407
12:07:47 25 1001 211 4 SW 0 40.2 404
12:10:47 25 1002 211 1 NO 0 41.2 404
12:13:35 23 1001 212 3 S 0 40 407
12:16:49 25 1002 213 3 NO 0 38.7 405
12:19:48 26 1001 213 7 NO 0 38.7 407
12:22:48 26 1001 213 8 NO 0 37.3 404
12:25:47 26 1001 214 5 S 0 37.1 407
12:28:51 26 1001 215 7 NO 0 35.5 404
12:31:52 26 1001 216 9 SO 0 35.8 407
12:34:47 26 1001 216 5 S 0 38.1 405
12:37:49 26 1002 217 9 O 0 35.1 407
12:40:47 26 1001 217 3 NO 0 35.5 403
12:43:49 26 1000 218 4 O 0 36.6 407
12:46:49 26 1001 219 3 N 0 35.8 407
12:49:48 27 1000 219 2 N 0 36.2 407
12:52:48 27 1001 218 3 NW 0 35.3 407
12:55:46 27 1002 218 3 S 0 34.1 404
12:58:48 27 1001 217 8 SO 0 35.9 404
13:01:50 28 1000 218 3 SO 0 35 407
13:04:47 27 1002 219 1 O 0 33.9 403
13:07:50 27 1001 220 3 NO 0 34.8 407
13:10:50 28 1000 220 9 SO 0 35.6 407
13:13:49 28 1001 221 6 SO 0 32.3 404
13:16:49 28 1001 222 0 S 0 32.1 405
13:19:49 28 1000 223 12 SO 0 32.8 407
13:22:47 29 1001 225 3 S 0 32.3 406
13:25:49 29 1000 226 12 NO 0 31.7 404
13:28:47 28 1000 227 4 O 0 32.5 404
13:31:49 28 1000 228 10 O 0 33.7 403
13:34:50 29 1000 230 5 S 0 33.8 401
13:37:48 30 1001 230 4 S 0 32.2 407
13:40:49 30 1000 232 5 O 0 31.4 407
13:43:48 30 1001 231 1 SO 0 31 407
13:46:48 29 1000 231 14 S 0 31.1 403
13:49:47 29 1000 231 8 SO 0 31.6 407
13:52:49 29 1000 231 0 S 0 32.9 406
13:55:50 28 1000 232 13 SO 0 33.2 407
13:58:48 28 1000 232 2 NW 0 34 404
14:01:48 27 1000 232 1 SO 0 34.5 404
14:04:48 27 1000 232 3 NO 0 36.1 404
14:07:46 27 1001 232 1 NO 0 35.7 407
14:10:48 27 1000 233 4 S 0 35.8 407
14:13:50 27 1000 233 1 NO 0 36.1 404
14:16:48 27 999 230 3 N 0 36 407
14:19:49 28 1000 229 4 SO 0 37 406
14:22:49 28 1000 229 8 SW 0 36.3 404
14:25:48 28 999 230 3 W 0 36.3 404
14:28:48 28 1000 231 9 SO 0 36.7 407
14:31:49 28 999 230 6 SW 0 36.8 404
14:34:49 28 999 228 1 W 0 36.4 404
14:37:48 28 999 231 4 S 0 36.6 404
14:40:50 28 1000 233 6 W 0 36.6 406
14:43:47 28 999 237 5 O 0 36.2 404
14:46:49 29 999 237 6 SO 0 36.2 404
14:49:49 29 1000 234 16 SO 0 36.6 404
14:52:48 29 999 232 2 NO 0 34.8 404
14:55:46 28 999 231 3 O 0 35.7 404
14:58:50 28 999 234 3 NW 0 36.4 407
15:01:48 28 1000 234 2 NO 0 36.7 406
15:04:48 28 1000 238 2 O 0 37.6 407
15:07:47 28 999 237 3 S 0 36.7 404
15:10:48 29 999 240 9 S 0 36.6 410
15:13:46 29 999 237 3 O 0 35.4 407
15:16:48 29 1000 237 10 S 0 34.5 407
15:19:51 29 998 236 5 SW 0 35.3 403
15:22:49 29 999 236 10 SW 0 35.4 404
15:25:48 29 999 233 13 S 0 34.5 406
15:28:47 29 999 231 2 NO 0 35.4 404
15:31:47 29 999 229 8 S 0 36 407
15:34:49 29 1000 229 7 SO 0 35.6 415
15:37:50 29 999 230 9 0 35.2 417
15:40:48 29 999 231 2 S 0 35.4 407
15:43:47 28 1000 231 9 S 0 35.6 407
15:46:49 28 999 229 1 SO 0 35 406
15:49:48 28 997 226 5 SW 0 35.7 407
15:52:46 28 999 223 3 S 0 36.5 404
15:55:47 28 999 221 3 S 0 36.5 405
15:58:49 28 999 219 11 O 0 36.7 404
16:01:48 27 998 217 6 S 0 37.2 408
16:04:46 27 999 217 1 S 0 37.7 407
16:07:51 27 998 217 6 SO 0 38.2 408
16:10:47 27 999 217 5 S 0 38.8 405
16:13:50 27 999 218 2 SO 0 39.3 410
16:16:47 27 999 218 2 SO 0 40.4 407
16:19:48 27 999 219 3 SW 0 40.4 416
16:22:46 26 999 221 8 S 0 40.5 413
16:25:47 26 998 224 11 SW 0 40.9 409
16:28:47 26 999 225 3 S 0 40.9 409
16:31:47 27 999 227 6 S 0 41.2 413
16:34:49 27 998 227 7 SW 0 41.3 410
16:37:47 27 999 223 3 N 0 41 404
16:40:48 26 998 220 8 SO 0 41.4 407
16:43:47 26 999 219 6 S 0 41.5 404
16:46:47 26 999 215 6 W 0 42.2 412
16:49:49 26 999 211 5 SO 0 42.9 407
16:52:49 26 999 210 6 SW 0 43.6 404
16:55:47 26 1000 208 13 S 0 44.7 407
16:58:49 25 999 205 4 SO 0 46.2 410
17:01:51 25 999 203 9 SO 0 48.8 407
17:04:46 25 999 199 7 S 0 49.3 413
17:07:47 24 999 197 4 S 0 52 410
17:10:50 24 999 197 11 SW 0 52.8 407
17:13:47 24 999 195 6 S 0 53.6 407
17:16:45 23 999 192 5 S 0 54.6 407
17:19:48 23 999 190 6 SO 0 55.2 404
17:22:50 23 999 190 2 SO 0 56.1 407
17:25:47 23 1000 191 2 S 0 56.3 407
17:28:50 23 999 190 9 NO 0 56.9 407
17:31:49 22 999 167 5 S 0 57.5 407
17:34:54 22 999 191 2 S 0 57.7 407
17:37:47 22 999 192 1 S 0 58.7 415
17:40:48 22 999 193 5 SO 0 60 419
17:43:50 22 999 194 5 SO 0 60.7 434
17:46:46 22 999 192 3 S 0 60.9 444
17:49:48 22 999 191 1 SW 0 61.5 448
17:52:48 22 999 190 1 W 0 61.8 456
17:55:49 22 999 190 1 SO 0 62.1 468
17:58:49 21 999 190 4 SW 0 62.5 466
18:01:50 21 999 190 0 S 0 63.2 468
18:04:49 21 999 189 0 W 0 64.3 477
18:07:49 21 1000 191 0 NO 0 65 482
18:10:49 21 999 193 0 S 0 65.7 492
18:13:47 21 999 194 2 SO 0 67.7 492
18:16:49 21 999 196 0 SW 0 70.2 503
18:19:48 21 999 194 0 S 0 71.3 504
18:22:49 21 1000 184 0 S 0 71.5 515
18:25:49 21 1000 174 0 S 0 73 521
18:28:50 20 999 170 0 S 0 73.7 535
18:31:49 20 1000 167 0 W 0 73.7 544
18:34:48 20 1000 162 0 W 0 74 545
18:37:48 20 999 157 1 W 0 75.7 548
18:40:47 20 999 157 0 W 0 76.8 551
18:43:48 19 999 160 0 SO 0 76.7 554
18:46:47 19 999 163 0 W 0 77.1 563
18:49:49 19 999 165 1 SO 0 78.4 571
18:52:50 19 999 164 0 SO 0 78.2 571
18:55:49 19 999 161 0 SO 0 78.5 589
18:58:47 19 999 158 0 SO 0 79.1 598
19:01:51 19 999 153 0 SO 0 79.5 604
19:04:50 19 999 152 0 SO 0 79.9 603
19:07:51 19 999 148 0 SO 0 80.5 606
19:10:48 18 999 141 0 SO 0 81.3 615
19:13:49 18 998 134 0 SO 0 81.4 618
19:16:50 18 1000 129 0 SO 0 81.9 620
19:19:47 18 999 124 0 SO 0 82.2 635
19:22:51 18 999 123 0 SO 0 82.6 647
19:25:49 18 1000 121 0 SO 0 82.9 653
19:28:48 18 1000 118 0 SO 0 84.1 656
19:31:49 18 1000 117 0 SO 0.2575 84.5 647
19:34:48 18 999 116 0 SO 0 84.8 645
19:37:49 18 1000 109 0 SO 0 84.9 636
19:40:49 18 1000 105 0 SO 0 85.9 641
19:43:47 18 999 111 0 SO 0 86.1 635
19:46:50 18 1000 111 0 SO 0 86.5 646
19:49:50 18 999 104 0 SO 0 86.7 660
19:52:48 18 999 101 0 SO 0 87.1 664
19:55:49 18 999 104 0 SO 0 87.5 677
19:58:50 18 1000 109 0 SO 0 87.8 686
20:01:49 18 1000 110 0 SO 0 87.9 689
20:04:48 17 999 106 0 SO 0 87.9 705
20:07:47 17 1000 104 0 S 0 88.2 703
20:10:47 17 999 104 1 S 0 89.2 708
20:13:48 17 1001 105 1 SW 0 90.8 700
20:16:51 17 1000 106 0 SW 0 90.8 695
20:19:48 17 999 105 0 SW 0 90.5 699
20:22:49 17 1001 103 0 SO 0 90.4 701
20:25:48 17 1000 97 0 SO 0 90.4 706
20:28:50 17 999 91 0 SO 0 90.4 713
20:31:48 17 1000 83 0 SO 0 90.3 717
20:34:47 17 1000 73 0 SO 0 90.4 717
20:37:48 17 1000 63 0 SO 0 90.4 718
20:40:48 17 1000 56 0 SO 0 90.4 723
20:43:48 17 999 53 0 SO 0 90.5 735
20:46:52 17 1000 46 0 SO 0 90.8 744
20:49:51 17 1000 36 0 SO 0 90.8 747
20:52:50 17 1000 31 0 SO 0 91.1 739
20:55:48 17 999 27 0 SO 0 91.4 744
20:58:49 17 1000 24 0 SO 0 91.6 752
21:01:47 17 1000 21 0 W 0 91.7 757
21:04:48 17 1000 17 0 S 0 92 759
21:07:48 17 1000 14 0 SO 0 92.3 761
21:10:49 17 1000 11 2 S 0 92.4 761
21:13:45 17 1001 9 0 O 0 92.6 771
21:16:45 17 1000 7 0 O 0 92.9 770
21:19:46 17 1001 6 0 W 0 92.8 770
21:22:48 17 1000 5 0 W 0 93.1 771
21:25:47 17 1001 4 3 SW 0 93.2 775
21:28:48 17 1000 4 0 W 0 93.9 785
21:31:48 17 1001 3 0 W 0 93.8 787
21:34:47 17 1000 3 0 W 0 93.8 791
21:37:48 17 1001 3 0 W 0 93.7 785
21:40:47 17 1001 0 0 W 0 93.6 791
21:43:47 17 1001 0 0 W 0 93.6 789
21:46:48 17 1001 3 0 W 0 94 800
21:49:48 17 1001 3 0 W 0 94.2 817
21:52:46 17 1000 0 0 W 0 94.3 823
21:55:48 17 1001 0 0 W 0 94.1 823
21:58:47 16 1000 0 0 W 0 94 820
22:01:49 16 1001 0 0 W 0 94.1 818
22:04:49 16 1001 0 0 W 0 94.4 812
22:07:47 16 1000 0 1 W 0 94.4 819
22:10:48 16 1001 0 0 W 0 94.3 821
22:13:45 16 1002 0 0 W 0 94.2 824
22:16:46 16 1001 0 0 W 0 94.1 831
22:19:48 16 1001 0 0 W 0 94 835
22:22:47 16 1002 0 0 W 0 94 835
22:25:50 16 1001 0 0 W 0 94.2 839
22:28:46 16 1001 0 0 W 0 94.4 843
22:31:49 16 1001 0 0 W 0 94.7 853
22:34:49 16 1001 0 0 W 0 94.8 864
22:37:47 16 1002 0 0 W 0 95 867
22:40:46 16 1002 0 2 N 0 96.1 863
22:43:47 16 1002 0 0 N 0 96.5 873
22:46:47 16 1001 0 0 NO 0 96.3 879
22:49:49 16 1002 0 0 NO 0 96.4 873
22:52:47 16 1001 0 0 NO 0 95.9 874
22:55:48 16 1002 0 0 NO 0 95.7 872
22:58:47 16 1002 0 0 O 0 95.6 877
23:01:50 16 1002 0 0 S 0 95.8 889
23:04:46 16 1002 0 0 N 0 96 888
23:07:48 16 1002 0 0 N 0 96.4 890
23:10:49 16 1002 0 0 N 0 96 894
23:13:47 16 1002 0 0 O 0 95.8 890
23:16:47 16 1002 0 0 S 0 95.7 890
23:19:48 16 1002 0 0 W 0 95.7 902
23:22:49 16 1002 0 0 SO 0 95.6 902
23:25:47 16 1002 0 0 SO 0 95.4 916
23:28:48 16 1002 0 0 W 0 95.4 923
23:31:48 16 1002 0 1 W 0 95.8 932
23:34:47 16 1002 0 0 W 0 95.9 930
23:37:46 16 1002 0 0 W 0 95.7 956
23:40:47 16 1002 0 0 W 0 95.9 971
23:43:47 16 1002 0 0 W 0 95.5 968
23:46:48 16 1002 0 0 W 0 95.5 957
23:49:48 16 1002 0 0 W 0 95.5 958
23:52:48 16 1002 0 0 W 0 95.6 964
23:55:45 16 1002 0 0 W 0 95.6 975
23:58:47 16 1002 0 0 W 0 95.6 973

Letzte Änderung : 22-Jul-2022
Copyright Jens Köhler, Wolfsburg, Obere Dorfstraße 10d